Meteo Giornale » Osservazioni meteo Stati Uniti (USA) » Chandler

ore: 20:55 - Osservazioni Meteo Chandler
Lat. 33° 16' N Lon. 111° 48' W Alt. 379 metri s.l.m.

nuvoloso

35 °C

Nuvoloso

Temp. 24 Ore

27 °C

39 °C

Ovest/Sud-Ovest

7.4 Km/h

Dew point 16 °C

Umidità 32 %

Visibilità  14 Km

Il sole sorge alle ore 06:02

Il sole tramonta alle ore 18:51

Data e Ora Cielo e Fenomeni T °C DP °C Um. % Pres. hPa Vis. km Vento km/h
Oggi h: 20:55 nuvoloso Nuvoloso 35 16 32 1011 14 O/SO 7.4
Oggi h: 20:47 poco_nuvoloso Poco Nuvoloso 35 16 32 1011 10 O/SO 13
Oggi h: 19:47 poco_nuvoloso Poco Nuvoloso 36 15 28 1010 10 O 13
Oggi h: 18:47 poco_nuvoloso Poco Nuvoloso 37 15 27 1009 10 O/SO 18.5
Oggi h: 17:47 poco_nuvoloso Poco Nuvoloso 37 14 25 1009 10 N 0
Oggi h: 16:47 poco_nuvoloso Poco Nuvoloso 38 14 24 1010 10 SO 9.3
Oggi h: 15:47 poco_nuvoloso Poco Nuvoloso 38 14 24 1010 10 O/SO 13
Oggi h: 14:47 poco_nuvoloso Poco Nuvoloso 39 14 22 1011 10 N 7.4
Oggi h: 13:47 poco_nuvoloso Poco Nuvoloso 37 15 27 1012 10 S 37
Oggi h: 12:47 poco_nuvoloso Poco Nuvoloso 37 15 27 1013 10 SO 13
Oggi h: 11:47 poco_nuvoloso Poco Nuvoloso 36 15 28 1014 10 SO 22.2
Oggi h: 10:47 sereno Sereno 34 17 36 1015 10 SO 13
Oggi h: 09:47 sereno Sereno 33 17 38 1015 10 S/SO 11.1
Oggi h: 08:47 sereno Sereno 32 20 49 1015 10 S 14.8
Oggi h: 07:47 sereno Sereno 30 21 58 1015 10 N 0
Oggi h: 06:47 sereno Sereno 28 21 65 1014 10 E 7.4
Oggi h: 05:47 sereno Sereno 28 21 65 1013 10 E/NE 11.1
Oggi h: 05:35 sereno Sereno 27 21 69 1013 10 N 5.5
Oggi h: 05:15 sereno Sereno 27 21 69 1013 10 E 9.3
Oggi h: 04:55 sereno Sereno 27 21 69 1013 10 N 5.5
Oggi h: 04:35 sereno Sereno 29 20 58 1013 10 N 5.5
Oggi h: 04:15 sereno Sereno 30 19 51 1013 10 N 0
Oggi h: 03:55 sereno Sereno 29 19 54 1013 10 N 0
Oggi h: 03:35 sereno Sereno 29 19 54 1013 10 N 0
Oggi h: 03:15 sereno Sereno 30 19 51 1013 10 N 0
Oggi h: 02:55 sereno Sereno 30 19 51 1012 10 N 0
Oggi h: 02:35 sereno Sereno 30 18 48 1012 10 N 5.5
Oggi h: 02:15 poco_nuvoloso Poco Nuvoloso 31 18 45 1012 10 N 0
Oggi h: 01:55 molto_nuvoloso Molto Nuvoloso 31 18 45 1012 14 S 7.4
Oggi h: 01:35 sereno Sereno 31 17 43 1013 10 S/SE 11.1
Oggi h: 01:15 sereno Sereno 32 17 40 1013 14 S 7.4
Oggi h: 00:55 sereno Sereno 32 18 43 1013 14 S 9.3
Oggi h: 00:35 nuvoloso Nuvoloso 32 19 46 1012 14 S 7.4
Oggi h: 00:15 coperto Coperto 32 19 46 1012 14 S/SO 7.4
Ieri h: 23:55 coperto Coperto 33 19 43 1012 14 SO 7.4
Ieri h: 23:35 coperto Coperto 32 19 46 1012 14 N 5.5
Ieri h: 23:15 coperto Coperto 32 19 46 1012 10 N 0
Ieri h: 22:55 coperto Coperto 33 19 43 1012 13 S/SE 7.4
Ieri h: 22:35 molto_nuvoloso Molto Nuvoloso 33 18 41 1012 14 S 7.4
Ieri h: 22:15 coperto Coperto 33 18 41 1012 14 S/SO 11.1
Ieri h: 21:55 coperto Coperto 34 18 38 1012 10 S/SO 11.1
Ieri h: 21:35 molto_nuvoloso Molto Nuvoloso 34 17 36 1012 14 N 0